This is the latest recevied weather packets stored in our database for station/object NR6G-12. If no packets are shown the sender has not sent any weather packets the latest 1 day(s).
| Time | Temp. | Humidity | Pressure | Rain* | Wind** | Luminosity | Snow |
|---|---|---|---|---|---|---|---|
| 1778090762 | 11.67° C | 82% | 1019.7 hPa | 0 mm | - | - | - |
| 1778089684 | 11.11° C | 85% | 1019.7 hPa | 0 mm | - | - | - |
| 1778086442 | 10.56° C | 85% | 1019.6 hPa | 0 mm | - | - | - |
| 1778084282 | 10° C | 84% | 1019.8 hPa | 0 mm | - | - | - |
| 1778083743 | 10° C | 87% | 1019.7 hPa | 0 mm | - | - | - |
| 1778083023 | 9.44° C | 87% | 1019.7 hPa | 0 mm | - | - | - |
| 1778082663 | 8.89° C | 88% | 1019.7 hPa | 0 mm | - | - | - |
| 1778081943 | 8.89° C | 89% | 1019.5 hPa | 0 mm | - | - | - |
| 1778081583 | 8.89° C | 90% | 1018.8 hPa | 0 mm | - | - | - |
| 1778080143 | 7.78° C | 90% | 1018.9 hPa | 0 mm | - | - | - |
| 1778079783 | 7.78° C | 91% | 1018.9 hPa | 0 mm | - | - | - |
| 1778078343 | 6.11° C | 92% | 1018.6 hPa | 0 mm | - | - | - |
| 1778077983 | 6.11° C | 92% | 1018.6 hPa | 0 mm | - | - | - |
| 1778077623 | 6.11° C | 92% | 1018.6 hPa | 0 mm | - | - | - |
| 1778077263 | 6.11° C | 92% | 1018.4 hPa | 0 mm | - | - | - |
| 1778076903 | 5.56° C | 92% | 1018.3 hPa | 0 mm | - | - | - |
| 1778076543 | 5.56° C | 92% | 1018.4 hPa | 0 mm | - | - | - |
| 1778076183 | 5.56° C | 93% | 1018.3 hPa | 0 mm | - | - | - |
| 1778075823 | 5.56° C | 93% | 1018.3 hPa | 0 mm | - | - | - |
| 1778073663 | 5° C | 93% | 1017.7 hPa | 0 mm | - | - | - |
| 1778073303 | 5° C | 92% | 1017.8 hPa | 0 mm | - | - | - |
| 1778072943 | 5° C | 93% | 1017.7 hPa | 0 mm | - | - | - |
| 1778072583 | 5° C | 92% | 1017.7 hPa | 0 mm | - | - | - |
| 1778071863 | 5.56° C | 92% | 1017.6 hPa | 0 mm | - | - | - |
| 1778071143 | 5° C | 92% | 1017.5 hPa | 0 mm | - | - | - |
* Rain latest hour (hover to see other rain measurements)
** Current wind speed in m/s (hover to see current wind gust speed)